Time,TemperatureF,DewpointF,PressureIn,WindDirection,WindDirectionDegrees,WindSpeedMPH,WindSpeedGustMPH,Humidity,HourlyPrecipIn,Conditions,Clouds,dailyrainin,SoftwareType,DateUTC
2013-08-06 00:02:00,65.0,62.0,29.87,SSE,164,10.0,10.0,91,0.00,,,2.01,,2013-08-06 05:02:00,
2013-08-06 00:11:00,65.0,62.0,29.87,SSE,164,10.0,10.0,91,0.00,,,2.01,,2013-08-06 05:11:00,
2013-08-06 00:22:00,65.0,62.0,29.87,SSE,164,10.0,10.0,91,0.00,,,2.01,,2013-08-06 05:22:00,
2013-08-06 00:32:00,65.0,62.0,29.87,SSE,164,10.0,10.0,91,0.00,,,2.01,,2013-08-06 05:32:00,
2013-08-06 00:43:00,64.0,62.0,29.87,SSE,164,10.0,10.0,92,0.00,,,2.01,,2013-08-06 05:43:00,
2013-08-06 00:53:00,64.0,62.0,29.87,SSE,164,10.0,10.0,92,0.00,,,2.01,,2013-08-06 05:53:00,
2013-08-06 01:02:00,64.0,62.0,29.87,SSE,164,10.0,10.0,92,0.00,,,2.01,,2013-08-06 06:02:00,
2013-08-06 01:11:00,64.0,62.0,29.87,SSE,164,10.0,10.0,92,0.00,,,2.01,,2013-08-06 06:11:00,
2013-08-06 01:22:00,64.0,62.0,29.87,SSE,164,10.0,10.0,92,0.00,,,2.01,,2013-08-06 06:22:00,
2013-08-06 01:32:00,64.0,62.0,29.90,SSE,164,10.0,10.0,93,0.00,,,2.01,,2013-08-06 06:32:00,
2013-08-06 01:43:00,64.0,62.0,29.90,SSE,164,10.0,10.0,93,0.00,,,2.01,,2013-08-06 06:43:00,
2013-08-06 01:52:00,64.0,62.0,29.87,SSE,164,10.0,10.0,93,0.00,,,2.01,,2013-08-06 06:52:00,
2013-08-06 02:01:00,64.0,62.0,29.87,SSE,164,10.0,10.0,93,0.00,,,2.01,,2013-08-06 07:01:00,
2013-08-06 02:12:00,64.0,62.0,29.87,SSE,164,10.0,10.0,93,0.00,,,2.01,,2013-08-06 07:12:00,
2013-08-06 02:22:00,64.0,62.0,29.87,SSE,164,10.0,10.0,93,0.00,,,2.01,,2013-08-06 07:22:00,
2013-08-06 02:32:00,64.0,62.0,29.87,SSE,164,10.0,10.0,93,0.00,,,2.01,,2013-08-06 07:32:00,
2013-08-06 02:43:00,64.0,62.0,29.87,SSE,164,10.0,10.0,93,0.00,,,2.01,,2013-08-06 07:43:00,
2013-08-06 02:53:00,64.0,62.0,29.87,SSE,164,10.0,10.0,93,0.00,,,2.01,,2013-08-06 07:53:00,
2013-08-06 03:02:00,64.0,62.0,29.87,SSE,164,10.0,10.0,93,0.00,,,2.01,,2013-08-06 08:02:00,
2013-08-06 03:11:00,64.0,62.0,29.87,SSE,164,10.0,10.0,93,0.00,,,2.01,,2013-08-06 08:11:00,
2013-08-06 03:22:00,64.0,62.0,29.87,SSE,164,10.0,10.0,93,0.00,,,2.01,,2013-08-06 08:22:00,
2013-08-06 03:33:00,64.0,62.0,29.87,SSE,164,10.0,10.0,93,0.00,,,2.01,,2013-08-06 08:33:00,
2013-08-06 03:43:00,64.0,62.0,29.87,SSE,164,10.0,10.0,93,0.00,,,1.97,,2013-08-06 08:43:00,
2013-08-06 03:52:00,64.0,62.0,29.87,SSE,164,10.0,10.0,93,0.00,,,1.93,,2013-08-06 08:52:00,
2013-08-06 04:01:00,65.0,63.0,29.87,SSE,164,10.0,10.0,93,0.00,,,1.89,,2013-08-06 09:01:00,
2013-08-06 04:11:00,65.0,63.0,29.87,SSE,164,10.0,10.0,93,0.00,,,1.85,,2013-08-06 09:11:00,
2013-08-06 04:32:00,65.0,63.0,29.87,SSE,164,10.0,10.0,93,0.00,,,1.61,,2013-08-06 09:32:00,
2013-08-06 04:43:00,64.0,62.0,29.87,SSE,164,10.0,10.0,93,0.00,,,1.54,,2013-08-06 09:43:00,
2013-08-06 04:52:00,64.0,62.0,29.87,SSE,164,10.0,10.0,93,0.00,,,1.54,,2013-08-06 09:52:00,
2013-08-06 05:01:00,64.0,62.0,29.84,SSE,164,10.0,10.0,93,0.00,,,1.46,,2013-08-06 10:01:00,
2013-08-06 05:11:00,63.0,61.0,29.84,SSE,164,10.0,10.0,93,0.00,,,1.26,,2013-08-06 10:11:00,
2013-08-06 05:22:00,63.0,61.0,29.84,SSE,164,10.0,10.0,93,0.00,,,1.22,,2013-08-06 10:22:00,
2013-08-06 05:32:00,63.0,61.0,29.84,SSE,164,10.0,10.0,94,0.00,,,1.14,,2013-08-06 10:32:00,
2013-08-06 05:43:00,63.0,61.0,29.84,SSE,164,10.0,10.0,94,0.00,,,0.94,,2013-08-06 10:43:00,
2013-08-06 05:52:00,63.0,61.0,29.84,SSE,164,10.0,10.0,94,0.00,,,0.94,,2013-08-06 10:52:00,
2013-08-06 06:02:00,63.0,61.0,29.87,SSE,164,10.0,10.0,94,0.00,,,0.79,,2013-08-06 11:02:00,
2013-08-06 06:11:00,63.0,61.0,29.87,SSE,164,10.0,10.0,94,0.00,,,0.79,,2013-08-06 11:11:00,
2013-08-06 06:22:00,62.0,60.0,29.87,SSE,164,10.0,10.0,94,0.00,,,0.31,,2013-08-06 11:22:00,
2013-08-06 06:32:00,62.0,60.0,29.87,SSE,164,10.0,10.0,94,0.00,,,0.28,,2013-08-06 11:32:00,
2013-08-06 06:43:00,62.0,60.0,29.87,SSE,164,10.0,10.0,94,0.00,,,0.28,,2013-08-06 11:43:00,
2013-08-06 06:53:00,62.0,60.0,29.87,SSE,164,10.0,10.0,94,0.00,,,0.28,,2013-08-06 11:53:00,
2013-08-06 07:02:00,62.0,60.0,29.87,SSE,164,10.0,10.0,94,0.00,,,0.28,,2013-08-06 12:02:00,
2013-08-06 07:11:00,62.0,60.0,29.87,SSE,164,10.0,10.0,94,0.00,,,0.28,,2013-08-06 12:11:00,
2013-08-06 07:22:00,62.0,60.0,29.87,SSE,164,10.0,10.0,94,0.00,,,0.28,,2013-08-06 12:22:00,
2013-08-06 07:32:00,63.0,61.0,29.87,SSE,164,10.0,10.0,94,0.00,,,0.28,,2013-08-06 12:32:00,
2013-08-06 07:43:00,63.0,61.0,29.87,SSE,164,10.0,10.0,94,0.00,,,0.28,,2013-08-06 12:43:00,
2013-08-06 07:52:00,63.0,61.0,29.87,SSE,164,10.0,10.0,94,0.00,,,0.28,,2013-08-06 12:52:00,
2013-08-06 08:02:00,63.0,61.0,29.90,SSE,164,10.0,10.0,94,0.00,,,0.28,,2013-08-06 13:02:00,
2013-08-06 08:11:00,64.0,62.0,29.90,SSE,164,10.0,10.0,94,0.00,,,0.28,,2013-08-06 13:11:00,
2013-08-06 08:22:00,64.0,62.0,29.90,SSE,164,10.0,10.0,94,0.00,,,0.28,,2013-08-06 13:22:00,
2013-08-06 08:32:00,65.0,63.0,29.90,SSE,164,10.0,10.0,94,0.00,,,0.28,,2013-08-06 13:32:00,
2013-08-06 08:42:00,66.0,64.0,29.87,SSE,164,10.0,10.0,94,0.00,,,0.28,,2013-08-06 13:42:00,
2013-08-06 08:53:00,66.0,64.0,29.87,SSE,164,10.0,10.0,94,0.00,,,0.28,,2013-08-06 13:53:00,
2013-08-06 09:01:00,68.0,67.0,29.87,SSE,164,10.0,10.0,95,0.00,,,0.28,,2013-08-06 14:01:00,
2013-08-06 09:11:00,69.0,67.0,29.90,SSE,164,10.0,10.0,94,0.00,,,0.28,,2013-08-06 14:11:00,
2013-08-06 09:22:00,70.0,67.0,29.90,SSE,164,10.0,10.0,90,0.00,,,0.28,,2013-08-06 14:22:00,
2013-08-06 09:32:00,71.0,67.0,29.90,SSE,164,10.0,10.0,88,0.00,,,0.28,,2013-08-06 14:32:00,
2013-08-06 09:42:00,71.0,67.0,29.90,SSE,164,10.0,10.0,88,0.00,,,0.28,,2013-08-06 14:42:00,
2013-08-06 09:53:00,71.0,67.0,29.90,SSE,164,10.0,10.0,88,0.00,,,0.28,,2013-08-06 14:53:00,
2013-08-06 10:02:00,71.0,60.0,29.90,SSE,164,10.0,10.0,69,0.00,,,0.28,,2013-08-06 15:02:00,
2013-08-06 10:11:00,71.0,60.0,29.90,SSE,164,10.0,10.0,69,0.00,,,0.28,,2013-08-06 15:11:00,
2013-08-06 10:22:00,74.0,60.0,29.90,SSE,164,10.0,10.0,62,0.00,,,0.28,,2013-08-06 15:22:00,
2013-08-06 10:33:00,74.0,59.0,29.90,SSE,164,10.0,10.0,59,0.00,,,0.28,,2013-08-06 15:33:00,
2013-08-06 10:44:00,74.0,59.0,29.90,SSE,164,10.0,10.0,59,0.00,,,0.28,,2013-08-06 15:44:00,
2013-08-06 10:52:00,75.0,61.0,29.90,SSE,164,10.0,10.0,62,0.00,,,0.28,,2013-08-06 15:52:00,
2013-08-06 11:02:00,75.0,60.0,29.90,SSE,164,10.0,10.0,60,0.00,,,0.28,,2013-08-06 16:02:00,
2013-08-06 11:11:00,77.0,57.0,29.87,SSE,164,10.0,10.0,51,0.00,,,0.28,,2013-08-06 16:11:00,
2013-08-06 11:22:00,78.0,58.0,29.87,SSE,164,10.0,10.0,51,0.00,,,0.28,,2013-08-06 16:22:00,
2013-08-06 11:32:00,78.0,58.0,29.87,SSE,164,10.0,10.0,50,0.00,,,0.20,,2013-08-06 16:32:00,
2013-08-06 11:43:00,78.0,57.0,29.84,SSE,164,10.0,10.0,49,0.00,,,0.00,,2013-08-06 16:43:00,
2013-08-06 11:52:00,78.0,57.0,29.84,SSE,164,10.0,10.0,49,0.00,,,0.00,,2013-08-06 16:52:00,
2013-08-06 12:02:00,82.0,58.0,29.84,SSE,164,10.0,10.0,44,0.00,,,0.00,,2013-08-06 17:02:00,
2013-08-06 12:11:00,82.0,58.0,29.84,SSE,164,10.0,10.0,44,0.00,,,0.00,,2013-08-06 17:11:00,
2013-08-06 12:21:00,82.0,57.0,29.87,SSE,164,10.0,10.0,42,0.00,,,0.00,,2013-08-06 17:21:00,
2013-08-06 12:32:00,81.0,56.0,29.87,SSE,164,10.0,10.0,42,0.00,,,0.00,,2013-08-06 17:32:00,
2013-08-06 12:52:00,83.0,59.0,29.84,SSE,164,10.0,10.0,44,0.00,,,0.00,,2013-08-06 17:52:00,
2013-08-06 13:01:00,83.0,58.0,29.84,SSE,164,10.0,10.0,42,0.00,,,0.00,,2013-08-06 18:01:00,
2013-08-06 13:11:00,83.0,58.0,29.84,SSE,164,10.0,10.0,42,0.00,,,0.00,,2013-08-06 18:11:00,
2013-08-06 19:52:00,80.0,60.0,29.78,SSE,164,10.0,10.0,50,0.00,,,0.00,,2013-08-07 00:52:00,
2013-08-06 20:22:00,78.0,61.0,29.78,SSE,164,10.0,10.0,56,0.00,,,0.00,,2013-08-07 01:22:00,
2013-08-06 20:32:00,77.0,61.0,29.78,SSE,164,10.0,10.0,58,0.00,,,0.00,,2013-08-07 01:32:00,
2013-08-06 20:43:00,76.0,61.0,29.78,SSE,164,10.0,10.0,60,0.00,,,0.00,,2013-08-07 01:43:00,
2013-08-06 20:52:00,76.0,62.0,29.78,SSE,164,10.0,10.0,61,0.00,,,0.00,,2013-08-07 01:52:00,
2013-08-06 21:02:00,76.0,62.0,29.78,SSE,164,10.0,10.0,61,0.00,,,0.00,,2013-08-07 02:02:00,
2013-08-06 21:11:00,76.0,62.0,29.78,SSE,164,10.0,10.0,61,0.00,,,0.00,,2013-08-07 02:11:00,
2013-08-06 21:22:00,75.0,61.0,29.78,SSE,164,10.0,10.0,62,0.00,,,0.00,,2013-08-07 02:22:00,
2013-08-06 21:33:00,75.0,61.0,29.81,SSE,164,10.0,10.0,62,0.00,,,0.00,,2013-08-07 02:33:00,
2013-08-06 21:43:00,74.0,61.0,29.81,SSE,164,10.0,10.0,64,0.00,,,0.00,,2013-08-07 02:43:00,
2013-08-06 21:53:00,74.0,61.0,29.81,SSE,164,10.0,10.0,64,0.00,,,0.00,,2013-08-07 02:53:00,
2013-08-06 22:01:00,74.0,61.0,29.81,SSE,164,10.0,10.0,64,0.00,,,0.00,,2013-08-07 03:01:00,
2013-08-06 22:11:00,74.0,61.0,29.81,SSE,164,10.0,10.0,65,0.00,,,0.00,,2013-08-07 03:11:00,
2013-08-06 22:23:00,73.0,61.0,29.81,SSE,164,10.0,10.0,66,0.00,,,0.00,,2013-08-07 03:23:00,
2013-08-06 22:32:00,73.0,62.0,29.81,SSE,164,10.0,10.0,68,0.00,,,0.00,,2013-08-07 03:32:00,
2013-08-06 22:43:00,73.0,62.0,29.81,SSE,164,10.0,10.0,68,0.00,,,0.00,,2013-08-07 03:43:00,
2013-08-06 22:52:00,73.0,62.0,29.81,SSE,164,10.0,10.0,68,0.00,,,0.00,,2013-08-07 03:52:00,
2013-08-06 23:01:00,73.0,62.0,29.81,SSE,164,10.0,10.0,68,0.00,,,0.00,,2013-08-07 04:01:00,
2013-08-06 23:11:00,72.0,61.0,29.81,SSE,164,10.0,10.0,69,0.00,,,0.00,,2013-08-07 04:11:00,
2013-08-06 23:21:00,72.0,61.0,29.81,SSE,164,10.0,10.0,69,0.00,,,0.00,,2013-08-07 04:21:00,
2013-08-06 23:33:00,72.0,62.0,29.81,SSE,164,10.0,10.0,70,0.00,,,0.00,,2013-08-07 04:33:00,
2013-08-06 23:43:00,72.0,62.0,29.81,SSE,164,10.0,10.0,70,0.00,,,0.00,,2013-08-07 04:43:00,
2013-08-06 23:52:00,72.0,62.0,29.81,SSE,164,10.0,10.0,70,0.00,,,0.00,,2013-08-07 04:52:00,